Weather History for Livingston, MT

Change the Weather History Date:

Wednesday, June 26, 2013

  Actual Average Record
Temperature  
Mean Temperature 68 °F 62 °F  
Max Temperature 82 °F 78 °F 94 °F (1990)
Min Temperature 57 °F 46 °F 32 °F (2007)
Degree Days  
Heating Degree Days 0 4  
Month to date heating degree days 192  
Since 1 June heating degree days 192  
Since 1 July heating degree days 7588  
Cooling Degree Days 4 1  
Month to date cooling degree days 10  
Year to date cooling degree days 11  
Since 1 June cooling degree days 10  
Growing Degree Days 18 (Base 50)    
Moisture  
Dew Point 49 °F    
Average Humidity 55    
Maximum Humidity 83    
Minimum Humidity 30    
Precipitation  
Precipitation 0.14 in 0.07 in 1.33 in (1971)
Month to date precipitation 2.16  
Year to date precipitation 8.42  
Sea Level Pressure  
Sea Level Pressure 29.93 in    
Wind  
Wind Speed 12 mph (WSW)    
Max Wind Speed 23 mph    
Max Gust Speed 31 mph    
Visibility 10 miles    
Events Rain    
T = Trace of Precipitation, MM = Missing Value Source: NWS Daily Summary

Daily Weather History Graph

Daily Weather History Graph

Search for Another Location

Airport:

Trip Planner

Search our weather history database for the weather conditions in past years. The results will help you decide how hot, cold, wet, or windy it might be!

Date:

Astronomy

Jun. 26, 2013 Rise Set
Actual Time 5:33 AM MDT 9:15 PM MDT
Civil Twilight 4:55 AM MDT 9:53 PM MDT
Nautical Twilight 4:04 AM MDT 10:44 PM MDT
Astronomical Twilight 2:54 AM MDT 11:54 PM MDT
Moon 11:25 PM MDT (6/26) 9:42 AM MDT (6/26)
Length of Visible Light 16h 57m
Length of Day
15h 41m
Waning Gibbous, 85% of the Moon is Illuminated
Jun 26
Waning Gibbous
Jun 29
Last Quarter
Jul 8
New
Jul 15
First Quarter
Jul 22
Full

Hourly Weather History & Observations

Time (MDT) Temp. Dew Point Humidity Pressure Visibility Wind Dir Wind Speed Gust Speed Precip Events Conditions
12:53 AM 61.0 °F 48.9 °F 64% 29.81 in 10.0 mi WNW 8.1 mph - N/A   Overcast
1:53 AM 57.9 °F 52.0 °F 81% 29.86 in 10.0 mi WSW 5.8 mph - 0.01 in   Overcast
2:53 AM 57.9 °F 51.1 °F 78% 29.87 in 10.0 mi WNW 5.8 mph - 0.00 in   Overcast
3:53 AM 57.9 °F 51.1 °F 78% 29.87 in 10.0 mi NW 8.1 mph - 0.00 in   Overcast
4:53 AM 60.1 °F 50.0 °F 69% 29.86 in 10.0 mi WSW 17.3 mph - N/A   Mostly Cloudy
5:53 AM 61.0 °F 46.9 °F 60% 29.88 in 10.0 mi West 18.4 mph - N/A   Overcast
6:53 AM 63.0 °F 46.9 °F 56% 29.88 in 10.0 mi West 16.1 mph - N/A   Partly Cloudy
7:53 AM 66.9 °F 46.0 °F 47% 29.88 in 10.0 mi WSW 23.0 mph 31.1 mph N/A   Scattered Clouds
8:53 AM 68.0 °F 48.0 °F 49% 29.90 in 10.0 mi WSW 20.7 mph 27.6 mph N/A   Partly Cloudy
9:53 AM 72.0 °F 48.0 °F 43% 29.91 in 10.0 mi SW 19.6 mph 28.8 mph N/A   Clear
10:53 AM 73.9 °F 45.0 °F 35% 29.92 in 10.0 mi West 17.3 mph - N/A   Scattered Clouds
11:53 AM 73.9 °F 44.1 °F 34% 29.93 in 10.0 mi West 15.0 mph - N/A   Mostly Cloudy
12:53 PM 79.0 °F 45.0 °F 30% 29.91 in 10.0 mi WNW 19.6 mph - N/A   Clear
1:53 PM 80.1 °F 46.0 °F 30% 29.90 in 10.0 mi West 18.4 mph - N/A   Scattered Clouds
2:53 PM 77.0 °F 44.1 °F 31% 29.90 in 10.0 mi West 15.0 mph 25.3 mph N/A   Mostly Cloudy
3:53 PM 79.0 °F 46.0 °F 31% 29.91 in 10.0 mi West 17.3 mph 25.3 mph 0.00 in   Mostly Cloudy
4:53 PM 80.1 °F 46.0 °F 30% 29.91 in 10.0 mi WSW 16.1 mph - N/A   Scattered Clouds
5:53 PM 80.1 °F 46.9 °F 31% 29.90 in 10.0 mi West 13.8 mph 19.6 mph N/A   Scattered Clouds
6:53 PM 75.0 °F 46.9 °F 37% 29.92 in 10.0 mi WSW 12.7 mph - N/A   Scattered Clouds
7:53 PM 72.0 °F 48.9 °F 44% 29.94 in 10.0 mi WSW 6.9 mph - N/A   Overcast
8:37 PM 64.4 °F 57.2 °F 77% 30.11 in 2.5 mi SSW 13.8 mph - 0.13 in Rain Rain
8:44 PM 64.4 °F 57.2 °F 77% 30.11 in 10.0 mi South 8.1 mph - 0.13 in Rain Light Rain
8:53 PM 64.0 °F 57.0 °F 78% 30.01 in 10.0 mi South 6.9 mph - 0.13 in Rain Light Rain
9:53 PM 64.9 °F 55.9 °F 73% 30.01 in 10.0 mi Calm Calm - 0.00 in   Overcast
10:53 PM 61.0 °F 55.9 °F 83% 30.04 in 10.0 mi West 5.8 mph - N/A   Mostly Cloudy
11:53 PM 61.0 °F 55.0 °F 81% 30.05 in 10.0 mi West 3.5 mph - N/A   Mostly Cloudy